RH
36 43 43 42 37 32 28 28 34 40 42 38 41 61 76 86 90 92 84 68 66 61 63 67 72 79 94 98 98 93 88 84 81 72 75 75 81 86 87 86 79 83 79
45 40 38 33 30 27 30 44 50 51 43 40 52 70 85 89 89 87 73 72 66 65 69 73 81 96 99 99 97 95 94 92 92 85 78 78 88 88 92 93 91 86 80
39 36 31 32 31 40 50 54 48 42 44 48 66 87 92 94 89 80 81 73 68 71 76 79 77 92 96 94 95 94 96 97 98 93 84 81 80 80 85 90 85 89 90
33 32 33 36 44 50 55 50 38 42 50 66 85 99 88 98 93 92 87 72 76 77 72 63 50 60 95 98 100 98 98 99 98 96 88 86 84 83 95 92 84 83 78
34 35 37 43 50 54 53 39 40 51 62 68 99 99 96 95 88 78 79 79 74 69 52 39 43 52 58 81 100 100 100 100 98 96 90 84 82 77 81 80 89 99 96
38 38 40 47 54 53 42 41 54 60 74 78 88 90 93 92 78 80 76 76 65 51 38 43 56 63 99 89 76 81 92 100 100 96 89 95 78 99 86 88 90 100 92
38 41 49 54 51 46 44 55 61 66 86 92 98 93 80 79 81 78 77 64 54 39 44 56 78 100 100 100 100 100 99 94 95 96 100 98 94 87 90 100 97 97 97
39 46 49 49 46 50 55 64 65 76 90 93 89 83 79 82 81 80 64 58 46 42 51 69 100 100 100 100 98 100 100 98 98 100 97 99 98 98 97 99 97 97 95
42 45 48 51 53 60 65 70 66 78 86 88 80 81 85 84 83 71 63 52 47 45 53 92 100 100 100 100 100 100 100 100 97 99 89 88 87 88 93 100 100 98 96
38 44 49 53 57 71 80 75 64 71 78 82 82 85 84 85 77 69 63 58 50 50 75 69 48 84 100 100 100 100 100 100 100 100 100 100 100 96 96 98 100 99 90
42 46 45 46 52 80 88 79 73 78 81 80 83 86 86 83 72 70 66 64 64 75 72 40 29 60 92 57 78 100 99 95 100 100 100 100 100 100 98 96 98 100 98
45 43 43 46 52 74 87 84 74 78 86 86 88 90 92 84 75 74 71 71 50 56 66 30 19 29 37 39 55 73 83 85 94 98 100 100 100 97 97 96 96 97 94
40 40 44 55 67 87 91 90 80 72 88 92 94 96 94 85 81 78 76 73 60 51 61 33 18 23 23 33 43 60 70 74 90 94 95 97 97 97 96 97 96 96 95
38 42 58 76 80 92 95 98 87 73 85 96 98 97 93 88 86 82 82 72 68 52 56 53 24 20 20 25 31 35 35 67 94 96 96 96 96 95 96 96 96 96 99
43 56 71 85 90 92 92 98 92 90 93 97 91 96 94 90 90 88 86 79 78 67 49 61 50 28 20 20 22 20 21 47 85 92 93 94 95 93 94 95 96 97 98
55 71 80 90 87 88 92 96 93 95 98 96 84 88 91 91 91 93 87 80 82 77 52 50 63 54 33 22 21 21 20 20 55 88 91 95 96 95 92 100 96 96 97
73 83 88 86 87 86 92 99 93 94 98 97 91 91 95 93 94 94 90 87 85 81 67 47 53 64 59 43 29 23 23 23 20 47 78 89 93 95 98 100 100 100 100
82 89 89 88 87 97 97 93 94 95 99 97 87 94 93 98 97 97 96 92 88 82 80 69 50 49 58 60 54 44 35 28 26 22 25 40 58 86 94 96 100 93 97
88 90 92 93 99 94 97 99 94 95 95 92 89 93 94 95 96 98 98 94 90 85 83 78 69 55 48 44 38 35 34 31 30 29 25 25 32 38 56 87 91 90 88
94 95 97 96 95 92 97 98 98 94 92 92 90 92 94 94 95 93 97 95 89 85 82 77 74 69 58 57 53 48 45 41 32 30 29 26 27 29 31 46 66 63 83
94 99 94 91 99 98 95 96 99 100 96 93 96 90 92 97 95 94 94 93 87 86 80 76 72 71 68 69 65 67 70 67 54 38 34 30 27 24 24 28 40 44 65
94 94 93 92 90 91 98 99 99 98 77 72 72 83 93 97 96 89 89 87 86 88 82 76 71 71 70 72 72 73 78 81 78 62 50 50 36 24 20 20 23 27 31
96 97 92 91 88 90 99 98 97 96 83 73 79 87 88 88 88 89 87 86 88 87 84 76 71 69 70 72 75 75 78 82 84 75 70 74 68 46 24 18 20 20 21
91 90 90 90 90 93 99 97 97 96 96 94 92 91 93 92 90 88 84 89 89 89 83 78 71 68 70 72 75 77 78 82 84 80 75 74 69 56 37 25 23 27 27
96 96 98 92 94 96 98 97 97 98 97 96 96 96 96 96 95 90 82 87 87 94 83 81 77 69 70 74 77 79 79 81 84 83 78 70 56 48 39 29 27 29 29
92 100 100 97 96 96 100 98 97 97 97 97 97 97 97 96 96 96 95 91 91 92 83 82 77 71 74 78 79 79 78 79 83 84 81 70 56 49 40 30 27 27 29
Wind_Speed
8 8 9 10 14 20 23 21 20 21 24 26 24 24 23 24 24 28 15 12 17 19 21 23 25 27 25 24 24 24 23 24 31 36 31 29 29 28 27 25 23 24 24
7 9 11 15 20 22 20 20 22 26 28 26 23 19 17 21 27 17 11 14 17 20 21 25 29 26 26 25 25 25 25 25 27 34 32 29 24 25 25 24 22 23 24
9 10 16 20 20 17 16 21 27 30 29 24 20 17 21 23 12 11 11 17 20 20 26 29 31 28 27 25 25 26 24 22 22 25 32 27 26 24 21 21 22 25 23
10 15 18 17 15 15 21 27 30 29 25 22 19 17 17 14 9 12 16 16 19 25 29 31 31 28 25 25 24 23 22 22 22 24 28 26 22 21 16 17 19 19 22
14 17 17 16 15 20 26 29 28 24 22 21 16 13 11 9 13 11 15 20 25 28 28 29 30 29 25 21 19 20 21 22 22 23 24 23 22 20 19 20 20 18 18
16 16 15 15 18 24 27 26 24 22 20 15 9 8 9 13 11 16 19 24 27 27 28 29 26 23 18 20 17 14 17 23 25 22 24 24 24 21 19 18 18 17 16
16 15 12 17 21 24 24 23 23 20 16 12 11 12 11 10 15 19 25 26 25 25 26 25 22 18 18 17 17 22 22 22 23 25 25 24 22 18 18 19 17 18 17
15 14 16 19 21 23 23 22 20 16 14 14 15 13 11 14 18 24 25 23 23 24 24 22 18 18 17 17 22 21 19 20 19 19 20 22 20 20 20 20 22 18 19
15 16 18 20 21 23 23 22 18 14 14 14 13 12 14 17 23 23 22 22 22 23 22 18 17 18 17 18 19 20 20 19 17 21 20 18 18 21 21 19 19 17 16
17 17 19 20 22 23 22 20 15 13 14 15 14 14 16 20 21 20 20 21 21 21 20 19 20 18 16 18 18 18 18 19 21 19 16 14 15 15 14 15 16 19 19
18 19 21 22 22 21 21 18 14 13 13 13 14 15 18 20 20 18 18 19 18 19 19 21 19 19 18 19 17 13 17 21 19 17 15 14 13 13 13 12 13 15 19
19 22 23 24 21 19 20 18 15 15 15 15 15 17 18 19 18 17 18 18 18 18 19 21 20 19 20 19 17 16 17 18 16 14 13 13 14 13 13 13 13 14 16
21 23 24 23 19 17 19 18 16 16 15 16 16 19 18 17 17 17 17 17 17 17 19 19 19 18 19 18 17 16 16 16 14 13 14 14 14 13 12 14 10 9 10
23 24 23 22 20 18 19 18 16 14 14 16 19 19 18 16 16 16 17 17 17 17 18 18 18 17 16 16 16 15 16 14 13 13 14 13 13 14 13 15 14 7 4
25 22 20 21 19 21 20 17 15 14 14 16 19 19 16 16 15 15 16 16 17 18 17 16 16 16 16 16 16 16 16 14 11 12 13 14 13 13 14 13 12 12 10
21 20 19 18 19 18 17 16 18 16 16 17 17 14 14 15 15 15 15 15 15 17 16 16 15 15 16 16 16 17 17 18 14 12 13 14 14 14 14 13 12 10 9
17 18 18 17 18 18 18 19 20 18 20 18 17 15 16 15 15 15 15 14 15 16 15 15 15 15 15 15 15 16 16 17 17 15 14 14 13 12 12 12 12 11 10
17 17 17 19 19 20 20 20 22 22 22 20 18 17 17 16 16 15 15 15 15 16 15 14 14 13 14 14 15 15 15 15 15 15 14 14 13 12 12 12 12 13 12
18 18 19 20 19 19 21 22 21 21 21 22 20 18 17 16 17 17 17 17 16 16 15 14 13 13 13 13 14 14 15 14 15 15 15 14 14 13 11 11 10 10 11
20 20 22 23 22 23 23 23 24 21 22 22 22 20 18 16 18 18 18 19 17 16 15 14 13 13 12 13 13 13 13 14 14 14 14 14 13 13 12 11 11 11 10
22 22 23 20 19 23 27 26 24 22 23 22 21 20 18 19 18 18 19 20 19 17 16 15 13 13 12 12 12 12 12 12 13 13 13 13 13 12 12 11 11 11 10
25 27 26 24 21 23 24 22 21 23 22 21 19 18 19 21 23 20 20 20 19 19 17 16 14 13 12 12 12 12 12 11 12 12 12 12 12 12 11 10 10 10 9
26 25 26 24 22 21 23 22 21 23 22 21 20 19 19 22 23 23 22 19 19 20 19 18 16 14 13 12 11 11 11 11 11 11 11 11 11 11 11 10 10 9 9
24 24 24 23 22 21 22 22 21 24 24 24 24 24 23 22 24 25 24 23 22 21 21 20 18 15 14 13 12 11 11 10 10 10 10 10 10 10 10 9 9 8 8
24 24 23 21 22 22 22 20 21 22 25 26 26 27 29 29 27 25 26 26 25 23 23 22 20 17 15 14 13 12 11 11 10 10 10 9 9 10 9 8 8 8 8
26 20 19 22 21 23 22 22 22 21 21 22 24 25 28 30 32 32 28 25 25 24 22 22 21 19 17 15 13 12 11 11 10 9 9 9 9 9 9 8 8 7 7
Wind_Direction
350 326 316 314 317 319 320 325 326 325 319 315 300 291 292 291 299 301 282 277 284 290 293 300 302 302 300 298 296 295 293 290 290 293 293 295 294 293 290 286 273 266 271
315 308 315 319 319 320 323 328 326 322 323 317 306 303 291 294 298 285 268 282 293 293 294 299 302 301 300 300 299 296 292 290 288 292 295 297 292 291 289 285 269 259 261
300 310 315 316 319 321 320 323 325 325 323 316 309 299 297 297 279 271 284 294 298 296 301 303 303 302 302 301 300 296 293 290 286 287 294 295 296 298 288 284 275 264 264
304 314 317 313 305 308 320 323 324 325 323 316 309 303 303 294 284 290 300 301 300 302 304 304 305 305 304 304 299 297 297 292 290 289 290 294 295 294 301 295 283 270 264
311 319 314 296 297 312 318 322 325 327 322 316 307 296 289 304 304 305 308 305 306 308 311 311 309 311 309 305 301 299 297 297 295 291 291 293 294 294 291 284 288 286 275
313 314 304 294 304 312 319 325 329 326 325 326 322 332 312 296 294 305 309 312 314 316 316 316 317 320 316 312 313 317 315 304 296 293 289 287 290 287 293 287 277 279 290
312 308 303 304 309 317 324 328 328 324 323 316 314 309 299 293 302 310 316 317 319 319 320 322 321 321 320 316 317 318 313 307 300 292 290 287 281 288 291 292 281 271 271
308 306 307 308 316 322 325 326 323 317 315 305 304 303 288 298 308 314 317 319 320 324 327 325 321 321 318 321 319 316 313 311 305 304 305 286 277 281 282 281 284 284 269
307 306 308 313 319 321 322 322 317 307 305 306 306 289 289 303 311 315 318 320 325 328 327 328 323 319 319 324 320 319 318 319 314 308 302 301 291 286 280 278 275 279 264
302 305 308 312 315 313 316 320 317 306 296 294 289 283 294 306 311 315 319 325 328 329 334 332 331 330 329 325 322 319 324 322 322 321 315 313 310 308 300 276 263 259 263
303 305 308 310 309 303 310 315 310 304 298 289 282 283 299 307 310 314 321 327 328 329 333 336 333 334 332 333 330 325 314 317 325 325 322 318 314 309 307 301 277 255 252
305 308 310 311 309 306 306 309 305 297 293 283 277 289 300 306 308 314 322 329 328 332 334 336 336 335 334 337 333 326 323 328 331 333 334 332 331 327 322 312 290 274 264
311 312 309 309 309 301 301 302 302 293 282 274 279 292 298 302 305 312 320 326 329 335 335 336 340 342 340 341 341 338 334 332 340 344 344 346 350 349 352 347 315 281 270
313 310 305 305 310 299 297 295 292 289 280 275 285 290 293 295 301 308 317 323 332 336 337 340 343 347 347 348 352 356 356 349 349 353 355 353 355 360 3 11 26 11 299
310 308 306 305 310 306 297 290 284 284 288 287 296 286 284 290 296 302 312 320 329 333 336 339 341 345 354 359 1 3 7 5 356 357 1 3 3 1 6 10 23 35 37
308 311 316 311 310 305 298 290 289 281 288 289 304 289 285 288 291 295 303 312 321 330 334 337 342 345 350 355 359 2 3 7 7 360 358 0 2 3 4 5 10 14 16
307 311 313 311 308 311 296 289 291 285 279 285 292 291 286 287 284 285 294 305 313 323 329 333 336 341 344 348 352 358 1 2 3 359 354 353 355 359 1 0 2 4 4
308 303 304 304 304 300 299 294 285 279 277 274 288 282 286 275 282 281 289 294 303 312 319 325 329 332 337 339 343 347 352 356 359 360 358 354 351 347 351 358 1 1 356
316 308 304 298 292 297 296 288 291 278 270 277 283 278 284 274 275 266 276 283 291 299 306 315 321 325 327 330 332 337 341 347 352 354 355 355 355 355 350 345 345 346 349
309 307 307 305 294 297 293 288 282 279 274 277 279 277 278 275 271 268 272 274 282 291 295 303 311 317 320 324 326 330 334 338 344 349 352 352 354 355 356 353 351 351 353
321 316 318 308 297 298 298 289 274 274 275 275 277 268 269 266 274 268 272 269 274 283 287 293 299 308 312 317 320 323 328 330 336 342 348 350 350 353 355 356 354 354 354
311 312 315 313 306 304 303 297 270 271 277 277 279 273 261 267 267 270 271 268 271 274 278 283 289 295 303 309 313 316 320 323 327 332 337 342 346 349 351 355 357 359 1
299 300 306 308 306 302 302 297 273 266 274 274 276 278 271 268 269 267 266 269 270 268 270 273 278 282 289 297 305 310 313 315 318 324 328 332 336 341 346 351 356 1 3
301 300 302 305 307 300 300 295 287 268 271 274 275 275 277 279 272 269 266 266 266 270 266 266 269 270 275 285 295 303 307 308 309 314 319 324 329 334 338 340 347 355 357
302 299 295 299 302 300 298 297 288 282 277 279 281 280 280 279 277 274 266 264 265 265 266 261 262 260 264 273 284 294 300 301 300 303 308 313 319 325 327 329 334 342 348
308 300 293 296 296 304 300 296 294 292 289 287 287 285 282 280 277 273 271 258 258 260 263 258 256 254 256 264 275 284 290 292 291 293 297 302 308 315 318 319 321 327 334